Location: Unspecified
(0.0000°N, 0.0000°E)
Time: 11:29:42
(UTC+00:00)

Hubble Space Telescope - Visible Passes

Search period start: 12 April 2026 00:00
Search period end: 22 April 2026 00:00
Orbit: 474 x 477 km, 28.5° (Epoch: 12 April)

Date Brightness Start Highest point End Pass type
(mag) Time Alt. Az. Time Alt. Az. Time Alt. Az.
14 Apr 3.0 19:38:58 10° SSW 19:39:41 14° SSW 19:39:41 14° SSW visible
15 Apr 1.7 19:07:49 10° SSW 19:10:53 26° SSE 19:10:53 26° SSE visible
16 Apr 1.7 18:36:40 10° SSW 18:39:52 26° SSE 18:42:12 15° E visible
16 Apr 3.8 20:16:03 10° W 20:16:18 11° W 20:16:18 11° W visible
17 Apr 2.0 19:44:51 10° W 19:47:41 35° WNW 19:47:41 35° WNW visible
18 Apr 1.7 19:13:39 10° W 19:17:11 39° NNW 19:19:07 22° NNE visible
19 Apr 2.6 05:18:44 10° NNW 05:21:53 25° NNE 05:25:02 10° E visible
19 Apr 1.8 18:42:26 10° W 18:45:59 39° NNW 18:49:31 10° NE visible
20 Apr 2.5 04:47:32 10° NNW 04:50:41 25° NNE 04:53:49 10° E visible
21 Apr 2.4 04:18:38 23° N 04:19:28 25° NNE 04:22:35 10° E visible
